Overview Statistics Trail Chart Weather Telemetry Raw packets
 

This is the latest recevied weather packets stored in our database for station/object G6UIM-13. If no packets are shown the sender has not sent any weather packets the latest 10 day(s).

<< 2 3 4 5 6 7 8 >>
Time Temp. Humidity Pressure Rain* Wind** Luminosity Snow
1788608894 21.67° C 56% 1026.5 hPa 0 mm - - -
1788608626 21.67° C 56% 1026.4 hPa 0 mm - - -
1788608349 21.11° C 58% 1026.5 hPa 0 mm - - -
1788608104 21.11° C 56% 1026.5 hPa 0 mm - - -
1788607852 21.11° C 56% 1026.5 hPa 0 mm - - -
1788607574 21.67° C 55% 1026.5 hPa 0 mm - - -
1788607329 22.22° C 56% 1026.5 hPa 0 mm - - -
1788607089 21.67° C 57% 1026.5 hPa 0 mm - - -
1788606834 21.67° C 58% 1026.4 hPa 0 mm - - -
1788606549 21.67° C 56% 1026.4 hPa 0 mm - - -
1788606289 21.67° C 57% 1026.4 hPa 0 mm - - -
1788606034 21.67° C 57% 1026.4 hPa 0 mm - - -
1788605759 21.67° C 58% 1026.5 hPa 0 mm - - -
1788605509 21.11° C 59% 1026.6 hPa 0 mm - - -
1788605214 21.11° C 58% 1026.7 hPa 0 mm - - -
1788604934 21.11° C 58% 1026.7 hPa 0 mm - - -
1788604679 21.11° C 58% 1026.7 hPa 0 mm - - -
1788604439 21.11° C 59% 1026.7 hPa 0 mm - - -
1788604169 21.11° C 59% 1026.5 hPa 0 mm - - -
1788603894 21.11° C 59% 1026.7 hPa 0 mm - - -
1788603624 21.11° C 59% 1026.7 hPa 0 mm - - -
1788603354 21.11° C 59% 1026.7 hPa 0 mm - - -
1788603069 21.11° C 59% 1026.5 hPa 0 mm - - -
1788602790 21.11° C 59% 1026.6 hPa 0 mm - - -
1788602534 20.56° C 61% 1026.5 hPa 0 mm - - -

* Rain latest hour (hover to see other rain measurements)
** Current wind speed in m/s (hover to see current wind gust speed)